Regional Weather Roundup
Issued by NWS

Home | Current Version | Previous Version | Graphics & Text | Print | Product List | Glossary On
Versions: 1 2 3 4 5 6 7 8 9 10 11 12 13 14 15 16 17 18 19 20 21 22 23 24 25 26 27 28 29 30 31 32 33 34 35 36 37 38 39 40 41 42 43 44 45 46 47 48 49 50
000
ASUS43 KLOT 231400
RWRIL

ILLINOIS REGIONAL WEATHER ROUNDUP
NATIONAL WEATHER SERVICE CHICAGO/ROMEOVILLE IL
900 AM CDT WED APR 23 2014

NOTE: "FAIR" INDICATES FEW OR NO CLOUDS BELOW 12,000 FEET WITH NO
SIGNIFICANT WEATHER AND/OR OBSTRUCTIONS TO VISIBILITY.

* THESE STATIONS ARE NOT UNDER NWS QUALITY CONTROL. THEY ALSO MAY NOT
  REPORT WEATHER SUCH AS PRECIPITATION OR FOG.

ILZ001-002-007-009-015-016-024-231500-
NORTHWEST ILLINOIS

CITY           SKY/WX    TMP DP  RH WIND       PRES   REMARKS
MOLINE         MOSUNNY   45  31  58 E12       30.17R
STERLING*      PTSUNNY   43  30  61 E8        30.17F
$$

ILZ003-004-008-010-011-017-018-231500-
NORTH CENTRAL ILLINOIS

CITY           SKY/WX    TMP DP  RH WIND       PRES   REMARKS
ROCKFORD       MOSUNNY   43  27  53 E10       30.19F
$$

ILZ005-006-012>014-019>023-231500-
NORTHEAST ILLINOIS

CITY           SKY/WX    TMP DP  RH WIND       PRES   REMARKS
CHICAGO-OHARE  MOSUNNY   42  25  50 NE15      30.18R
CHICAGO-MIDWAY MOSUNNY   42  28  57 NE13      30.18R
AURORA         SUNNY     42  28  57 NE8       30.18R
WAUKEGAN       SUNNY     39  26  59 N9        30.18R WCI  33
DUPAGE AIRPORT SUNNY     41  28  60 NE14G21   30.17R
WHEELING       SUNNY     41  27  57 NE10      30.20R
NORTHERLY ISL    N/A     39  30  70 MISG        N/A
$$

LMZ740>746-231500-
SOUTHERN LAKE MICHIGAN

STATION/POSITION SKY/WX   TEMP    WIND        PRES    VSBY  WAVE
                          AIR SEA DIR/SP/G                  HT/PER
                          (F)     (DEG/KT/KT) (MB)    (MI)  (FT/S)
WAUKEGAN HARBOR            37      30/ 12/ 15 1023.4R
HARRISON CRIB              36      10/ 13/ 16   N/A
BURNHAM HARBOR             39      10/ 10/ 16   N/A
CALUMET HARBOR             38      20/ 11/ 16 1022.8R
MICHIGAN CITY              36      10/ 18/ 22   N/A
$$

ILZ025>027-034>036-040-047-049-050-058-095>099-231500-
WEST-CENTRAL ILLINOIS

CITY           SKY/WX    TMP DP  RH WIND       PRES   REMARKS
QUINCY         MOSUNNY   48  32  53 SE15      30.12F
$$

ILZ028>032-037-038-041>044-048-051>054-059>061-231500-
CENTRAL ILLINOIS

CITY           SKY/WX    TMP DP  RH WIND       PRES   REMARKS
DECATUR        SUNNY     46  30  53 E9        30.18R
PEORIA         SUNNY     46  29  51 E9        30.17S
SPRINGFIELD    SUNNY     48  30  49 E13       30.17F
TAYLORVILLE    NOT AVBL
$$

ILZ033-039-045-046-055>057-062-063-231500-
EAST-CENTRAL ILLINOIS

CITY           SKY/WX    TMP DP  RH WIND       PRES   REMARKS
CHAMPAIGN      SUNNY     45  29  53 NE17      30.16R
MATTOON        SUNNY     45  29  53 E15       30.14S
$$

ILZ079-100>102-231500-
SOUTHWEST ILLINOIS

CITY           SKY/WX    TMP DP  RH WIND       PRES   REMARKS
ALTON          SUNNY     48  32  53 E13       30.15R
CAHOKIA*       SUNNY     52  40  63 E14       30.13R
$$

ILZ064>066-069>071-074>076-080>082-084>086-088>090-092>094-231500-
SOUTH-CENTRAL ILLINOIS

CITY           SKY/WX    TMP DP  RH WIND       PRES   REMARKS
CARBONDALE     SUNNY     53  38  56 E14       30.11S
MT. VERNON     SUNNY     52  30  43 NE12      30.15R
$$

ILZ067-068-072-073-078-083-087-091-231500-
SOUTHEAST ILLINOIS

CITY           SKY/WX    TMP DP  RH WIND       PRES   REMARKS
$$

ABBREVIATIONS USED IN REMARKS
   TC - TEMPERATURE IN CELSIUS
  WCI - WIND CHILL INDEX
   HX - HEAT INDEX
  VSB - VISIBILITY
$$




USA.gov is the U.S. government's official web portal to all federal, state and local government web resources and services.